Regional Weather Roundup
Issued by NWS

Home | Current Version | Previous Version | Text Only | Print | Product List | Glossary On
Versions: 1 2 3 4 5 6 7 8 9 10 11 12 13 14 15 16 17 18 19 20 21 22 23 24 25 26 27 28 29 30 31 32 33 34 35 36 37 38 39 40 41 42 43 44 45 46 47 48 49 50
000
ASUS44 KMEG 232310
RWRTN
TENNESSEE HOURLY STATE WEATHER ROUNDUP
NATIONAL WEATHER SERVICE MEMPHIS TN
600 PM CDT MON OCT 23 2017

TNZ002-004-019-021-049-052-054-088>092-240000-
WEST TENNESSEE

CITY           SKY/WX    TMP DP  RH WIND       PRES   REMARKS
MEMPHIS INTL   PTCLDY    67  43  41 SW8       29.91F
NWS MEMPHIS      N/A     68 N/A N/A MISG        N/A
JACKSON        CLEAR     61  48  62 S6        29.90S
DYERSBURG        N/A     65  48  54 S5        29.87F
SOMERVILLE     CLEAR     64  48  55 S5        29.90S
COVINGTON      CLEAR     66  45  45 SW8       29.89F
UNION CITY     CLEAR     63  46  55 S7        29.86S
BOLIVAR        CLEAR     64  45  48 S5        29.91S
PARIS          CLEAR     57  46  67 S5        29.86S
HUNTINGDON     CLEAR     61  45  55 S5        29.87F
LEXINGTON      CLEAR     59  46  63 SW5       29.90S
SELMER         CLEAR     59  52  77 CALM      29.91F
SAVANNAH       CLEAR     63  46  55 SW5       29.92R
$$

TNZ008-025-027-028-033-062-065-066-240000-
NORTH MIDDLE TENNESSEE

CITY           SKY/WX    TMP DP  RH WIND       PRES   REMARKS
NASHVILLE      MOCLDY    57  45  64 SW6       29.89R
PORTLAND       PTCLDY    54  43  66 W7        29.86R
CLARKSVILLE    CLEAR     58  47  66 SW5       29.85F
SMYRNA         MOCLDY    56  46  69 SW8       29.91R
COOKEVILLE     CLOUDY    54  54 100 VRB3G14   29.87R FOG
CROSSVILLE     CLOUDY    52  50  93 W13G20    29.87R FOG
$$

TNZ061-075-076-078-094-096-097-240000-
SOUTH MIDDLE TENNESSEE

CITY           SKY/WX    TMP DP  RH WIND       PRES   REMARKS
FAYETTEVILLE   PTCLDY    57  50  77 W7        29.93R
TULLAHOMA      MOCLDY    54  48  82 W15       29.93R
WINCHESTER     CLOUDY    55  52  88 W8          N/A
COLUMBIA       CLEAR     55  48  76 SW5       29.90S
SHELBYVILLE    PTCLDY    54  50  87 W7        29.93R
$$

TNZ017-018-042-046-047-240000-
NORTHEAST TENNESSEE

CITY           SKY/WX    TMP DP  RH WIND       PRES   REMARKS
TRI CITIES     PTCLDY    57  57 100 E3        29.79S
ELIZABETHTON     N/A     55  55 100 CALM      29.81R
$$

TNZ012-013-036-069-073-074-240000-
CENTRAL EAST TENNESSEE

CITY           SKY/WX    TMP DP  RH WIND       PRES   REMARKS
KNOXVILLE      PTCLDY    61  54  77 W15       29.83R
OAK RIDGE      MOCLDY    60  53  77 VRB6      29.85R
DOWNTOWN KNOXV PTCLDY    63  54  72 W10G21    29.82R
GATLINBURG     PTCLDY    63  54  72 W14G23    29.82R
MORRISTOWN     PTCLDY    59  55  88 W8        29.82R
JACKSBORO      CLOUDY    61  50  67 SW8G21    29.85R
$$

TNZ083-085-099-240000-
SOUTHEAST TENNESSEE

CITY           SKY/WX    TMP DP  RH WIND       PRES   REMARKS
CHATTANOOGA    DRIZZLE   60  52  74 SW9G20    29.91R
DAYTON         CLOUDY    61  55  82 W12G25    29.87R
$$

SKY/WX REPORTED AS FAIR MEANS FEW OR NO CLOUDS BELOW
12 THOUSAND FEET.




USA.gov is the U.S. government's official web portal to all federal, state and local government web resources and services.